USA 271

Last updated on Tue Oct 14 2025 00:02:49 GMT+0000 (Coordinated Universal Time)

1 41745U 16052B 25286.34886175 -.00000343 00000+0 00000+0 0 9999 2 41745 3.5327 80.4004 0000199 201.7561 329.1227 1.00338789 25440
UTC large
Height (km)
Speed (km/s)
/
Latitude / Longitude
Inclination (degrees)
Orbital Period (minutes)
Azimuth
Elevation
Range (km)
Doppler Factor

Next 0 passes for location: London (51.5072 / 0.1276)

Sorry there are no passes over London.